Satellite: OO-38
Catalog number: 26063
Epoch time:      07360.84784005
Element set:    0094
Inclination:      100.2173 deg
RA of node:       038.9795 deg
Eccentricity:    0.0036681
Arg of perigee:   338.2918 deg
Mean anomaly:     021.6709 deg
Mean motion:   14.35823651 rev/day
Decay rate:       -5.0e-08 rev/day^2
Epoch rev:           41469
Checksum:              311

Satellite: ISS
Catalog number: 25544
Epoch time:      07358.19907605
Element set:     566
Inclination:      051.6388 deg
RA of node:       204.1167 deg
Eccentricity:    0.0001180
Arg of perigee:   009.4893 deg
Mean anomaly:     097.0562 deg
Mean motion:   15.77988401 rev/day
Decay rate:     1.9879e-04 rev/day^2
Epoch rev:           52075
Checksum:              331

Satellite: PO-34
Catalog number: 25520
Epoch time:      07358.16520830
Element set:     894
Inclination:      028.4608 deg
RA of node:       277.1540 deg
Eccentricity:    0.0005735
Arg of perigee:   166.7441 deg
Mean anomaly:     193.3302 deg
Mean motion:   15.17105020 rev/day
Decay rate:       5.18e-06 rev/day^2
Epoch rev:           50640
Checksum:              275

Satellite: UARS
Catalog number: 21701
Epoch time:      07360.91235705
Element set:    0252
Inclination:      056.9734 deg
RA of node:       196.5046 deg
Eccentricity:    0.0086738
Arg of perigee:   201.0043 deg
Mean anomaly:     158.7439 deg
Mean motion:   15.49998650 rev/day
Decay rate:      3.370e-05 rev/day^2
Epoch rev:           89561
Checksum:              318

Satellite: HUBBLE
Catalog number: 20580
Epoch time:      07358.19829455
Element set:      33
Inclination:      028.4685 deg
RA of node:       031.0153 deg
Eccentricity:    0.0003477
Arg of perigee:   308.4536 deg
Mean anomaly:     051.5739 deg
Mean motion:   15.00318796 rev/day
Decay rate:       4.01e-06 rev/day^2
Epoch rev:           76852
Checksum:              295

/EX





More information about the Keps mailing list